Weather History for Pratt, KS

Change the Weather History Date:

Thursday, December 6, 2012

  Actual Average (KP28) Record (KP28)
Temperature  
Mean Temperature 44 °F 37 °F  
Max Temperature 53 °F 49 °F 78 °F (1939)
Min Temperature 35 °F 25 °F 0 °F (1972)
Degree Days  
Heating Degree Days 21 28  
Month to date heating degree days 165  
Since 1 July heating degree days 1023  
Cooling Degree Days 0 0  
Month to date cooling degree days 0  
Year to date cooling degree days 1770  
Moisture  
Dew Point 33 °F    
Average Humidity 68    
Maximum Humidity 100    
Minimum Humidity 44    
Precipitation  
Precipitation 0.00 in 0.03 in 0.64 in (1920)
Month to date precipitation 0.17  
Year to date precipitation 26.39  
Snow  
Snow 0.00 in 0.10 in - ()
Month to date snowfall 0.5  
Since 1 July snowfall 0.7  
Snow Depth -    
Sea Level Pressure  
Sea Level Pressure 29.88 in    
Wind  
Wind Speed 10 mph (NE)    
Max Wind Speed 18 mph    
Max Gust Speed 20 mph    
Visibility 8 miles    
Events Fog    
T = Trace of Precipitation, MM = Missing Value Source: NWS Daily Summary

Daily Weather History Graph

Daily Weather History Graph

Search for Another Location

Airport:

Trip Planner

Search our weather history database for the weather conditions in past years. The results will help you decide how hot, cold, wet, or windy it might be!

Date:

Astronomy

Dec. 06, 2012 Rise Set
Actual Time 7:36 AM CST 5:16 PM CST
Civil Twilight 7:07 AM CST 5:45 PM CST
Nautical Twilight 6:34 AM CST 6:17 PM CST
Astronomical Twilight 6:02 AM CST 6:49 PM CST
Moon 12:01 AM CST (12/6) 12:36 PM CST (12/6)
Length of Visible Light 10h 37m
Length of Day
9h 39m
Waning Gibbous, 49% of the Moon is Illuminated
Dec 6
Waning Gibbous
Dec 13
New
Dec 19
First Quarter
Dec 28
Full
Jan 4
Last Quarter

Hourly Weather History & Observations

Time (CST) Temp. Windchill Dew Point Humidity Pressure Visibility Wind Dir Wind Speed Gust Speed Precip Events Conditions
12:15 AM 41.0 °F 34.3 °F 24.8 °F 53% 29.91 in 10.0 mi South 11.5 mph - N/A   Clear
12:55 AM 41.0 °F 33.9 °F 26.6 °F 57% 29.89 in 10.0 mi SSE 12.7 mph - N/A   Clear
1:15 AM 41.0 °F 34.7 °F 26.6 °F 57% 29.89 in 10.0 mi South 10.4 mph - N/A   Clear
1:35 AM 39.2 °F 32.0 °F 26.6 °F 61% 29.87 in 10.0 mi SSE 11.5 mph - N/A   Clear
1:55 AM 39.2 °F 32.0 °F 26.6 °F 61% 29.86 in 10.0 mi South 11.5 mph - N/A   Clear
2:15 AM 41.0 °F 33.5 °F 28.4 °F 61% 29.85 in 10.0 mi South 13.8 mph - N/A   Clear
2:35 AM 41.0 °F 33.1 °F 30.2 °F 65% 29.84 in 10.0 mi South 15.0 mph 19.6 mph N/A   Clear
7:35 AM 37.4 °F 32.8 °F 35.6 °F 93% 29.84 in 5.0 mi SSE 5.8 mph - N/A   Clear
7:55 AM 35.6 °F 29.9 °F 35.6 °F 100% 29.83 in 4.0 mi SE 6.9 mph - N/A   Scattered Clouds
8:15 AM 37.4 °F 32.1 °F 37.4 °F 100% 29.83 in 2.5 mi SE 6.9 mph - N/A   Mostly Cloudy
8:35 AM 39.2 °F 34.2 °F 37.4 °F 93% 29.83 in 0.2 mi SSE 6.9 mph - N/A Fog Fog
8:55 AM 41.0 °F 37.1 °F 41.0 °F 100% 29.84 in 0.2 mi SSE 5.8 mph - N/A Fog Fog
9:15 AM 42.8 °F 38.6 °F 42.8 °F 100% 29.83 in 0.2 mi SSE 6.9 mph - N/A Fog Fog
9:35 AM 42.8 °F 37.5 °F 42.8 °F 100% 29.85 in 2.0 mi South 9.2 mph - N/A   Overcast
9:55 AM 44.6 °F 41.4 °F 42.8 °F 93% 29.86 in 4.0 mi SSW 5.8 mph - N/A   Overcast
10:15 AM 44.6 °F 43.1 °F 41.0 °F 87% 29.86 in 5.0 mi SSW 3.5 mph - N/A   Mostly Cloudy
10:35 AM 44.6 °F - 41.0 °F 87% 29.86 in 5.0 mi Calm Calm - N/A   Scattered Clouds
10:55 AM 46.4 °F - 41.0 °F 81% 29.86 in 7.0 mi Calm Calm - N/A   Mostly Cloudy
11:15 AM 46.4 °F - 41.0 °F 81% 29.86 in 7.0 mi Calm Calm - N/A   Mostly Cloudy
11:55 AM 50.0 °F - 41.0 °F 71% 29.84 in 7.0 mi NNE 5.8 mph - N/A   Mostly Cloudy
12:15 PM 50.0 °F - 41.0 °F 71% 29.85 in 10.0 mi Calm Calm - N/A   Scattered Clouds
12:35 PM 51.8 °F - 37.4 °F 58% 29.85 in 10.0 mi North 8.1 mph - N/A   Scattered Clouds
12:55 PM 51.8 °F - 37.4 °F 58% 29.85 in 10.0 mi North 12.7 mph - N/A   Scattered Clouds
1:15 PM 51.8 °F - 37.4 °F 58% 29.85 in 10.0 mi NNE 15.0 mph - N/A   Scattered Clouds
1:35 PM 51.8 °F - 35.6 °F 54% 29.84 in 10.0 mi North 12.7 mph - N/A   Clear
1:55 PM 51.8 °F - 35.6 °F 54% 29.84 in 10.0 mi NNE 15.0 mph - N/A   Clear
2:15 PM 53.6 °F - 35.6 °F 51% 29.84 in 10.0 mi NE 11.5 mph - N/A   Clear
2:35 PM 53.6 °F - 32.0 °F 44% 29.84 in 10.0 mi NE 13.8 mph - N/A   Clear
2:55 PM 53.6 °F - 32.0 °F 44% 29.84 in 10.0 mi NNE 13.8 mph 19.6 mph N/A   Clear
3:15 PM 53.6 °F - 32.0 °F 44% 29.85 in 10.0 mi North 16.1 mph - N/A   Clear
3:35 PM 51.8 °F - 32.0 °F 47% 29.86 in 10.0 mi North 18.4 mph - N/A   Clear
3:55 PM 51.8 °F - 32.0 °F 47% 29.87 in 10.0 mi NNE 12.7 mph - N/A   Clear
4:15 PM 50.0 °F - 32.0 °F 50% 29.88 in 10.0 mi NNE 13.8 mph - N/A   Clear
4:35 PM 50.0 °F - 32.0 °F 50% 29.88 in 10.0 mi NNE 9.2 mph - N/A   Clear
4:55 PM 48.2 °F - 32.0 °F 54% 29.89 in 10.0 mi NNE 10.4 mph - N/A   Clear
5:15 PM 46.4 °F 41.9 °F 32.0 °F 57% 29.90 in 10.0 mi NNE 9.2 mph - N/A   Clear
5:35 PM 46.4 °F 41.5 °F 32.0 °F 57% 29.90 in 10.0 mi NNE 10.4 mph - N/A   Clear
5:55 PM 44.6 °F 40.7 °F 32.0 °F 61% 29.90 in 10.0 mi NNE 6.9 mph - N/A   Clear
6:15 PM 42.8 °F 37.5 °F 32.0 °F 66% 29.91 in 10.0 mi North 9.2 mph - N/A   Clear
6:35 PM 42.8 °F 37.0 °F 30.2 °F 61% 29.91 in 10.0 mi North 10.4 mph - N/A   Clear
6:55 PM 42.8 °F 36.2 °F 30.2 °F 61% 29.91 in 10.0 mi NNE 12.7 mph - N/A   Clear
7:15 PM 42.8 °F 36.6 °F 30.2 °F 61% 29.91 in 10.0 mi NNE 11.5 mph - N/A   Clear
7:35 PM 42.8 °F 36.6 °F 30.2 °F 61% 29.92 in 10.0 mi NNE 11.5 mph - N/A   Clear
7:55 PM 42.8 °F 35.8 °F 30.2 °F 61% 29.93 in 10.0 mi NNE 13.8 mph - N/A   Clear
8:35 PM 41.0 °F 35.2 °F 30.2 °F 65% 29.94 in 10.0 mi NNE 9.2 mph - N/A   Clear
8:55 PM 37.4 °F 32.1 °F 30.2 °F 75% 29.94 in 10.0 mi North 6.9 mph - N/A   Clear
9:15 PM 37.4 °F 32.8 °F 30.2 °F 75% 29.95 in 10.0 mi North 5.8 mph - N/A   Clear
9:35 PM 35.6 °F 29.9 °F 30.2 °F 81% 29.95 in 10.0 mi North 6.9 mph - N/A   Clear
9:55 PM 35.6 °F 28.6 °F 30.2 °F 81% 29.95 in 10.0 mi North 9.2 mph - N/A   Clear
10:15 PM 35.6 °F 28.6 °F 30.2 °F 81% 29.94 in 10.0 mi North 9.2 mph - N/A   Clear
10:55 PM 37.4 °F 30.3 °F 28.4 °F 70% 29.95 in 10.0 mi North 10.4 mph - N/A   Clear
11:15 PM 35.6 °F 28.6 °F 28.4 °F 75% 29.95 in 10.0 mi North 9.2 mph - N/A   Clear
11:55 PM 35.6 °F 28.6 °F 26.6 °F 70% 29.94 in 10.0 mi North 9.2 mph - N/A   Clear